FW2422 Weather Reports


Display with metric or nautical units.
time (UTC)temp
F
wind
direction
speed
MPH
gust
MPH
rain 1hr
in
rain 24hr
in
rain mn
in
humidity
%
barometer
mb
20260906054547 82 210 0.0 3.0 0.00 0.00 0.00 76 1012.2
20260906053047 82 173 0.0 3.0 0.00 0.00 0.00 76 1012.1
20260906051543 82 94 0.0 2.0 0.00 0.00 0.00 75 1012.2
20260906050044 83 311 0.0 4.0 0.00 0.00 0.00 74 1011.9
20260906044543 83 203 0.0 1.0 0.00 0.00 0.00 73 1011.9
20260906043039 83 91 0.0 4.0 0.00 0.00 0.00 72 1011.8
20260906041537 84 144 0.0 3.0 0.00 0.00 0.00 71 1011.8
20260906040037 84 157 1.0 4.0 0.00 0.00 0.00 70 1012.1
20260906034537 84 131 0.0 5.0 0.00 0.00 0.00 69 1012.0
20260906033038 85 205 1.0 5.0 0.00 0.00 0.00 68 1012.0
20260906031535 85 183 0.0 3.0 0.00 0.00 0.00 68 1011.8
20260906030034 85 164 1.0 3.0 0.00 0.00 0.00 67 1011.8
20260906024533 86 84 1.0 5.0 0.00 0.00 0.00 66 1011.9
20260905224516 101 28 0.0 1.0 0.00 0.00 0.00 37 1009.7
20260905203005 100 172 2.0 6.0 0.00 0.00 0.00 36 1010.8
20260905201503 101 231 0.0 3.0 0.00 0.00 0.00 37 1011.0
20260905200104 99 47 0.0 3.0 0.00 0.00 0.00 38 1011.2
20260905194559 100 106 2.0 6.0 0.00 0.00 0.00 37 1011.4
20260905193054 98 191 0.0 2.0 0.00 0.00 0.00 42 1011.7
20260905191552 98 49 0.0 4.0 0.00 0.00 0.00 42 1012.0
20260905190059 98 111 2.0 7.0 0.00 0.00 0.00 42 1012.3
20260905184551 96 186 0.0 6.0 0.00 0.00 0.00 44 1012.5
20260905174524 97 22 0.0 3.0 0.00 0.00 0.00 43 1013.3
20260905173014 97 229 2.0 7.0 0.00 0.00 0.00 43 1013.5
20260905171515 97 87 1.0 3.0 0.00 0.00 0.00 44 1013.7
20260905170012 96 274 0.0 1.0 0.00 0.00 0.00 46 1013.9
20260905164511 95 96 0.0 3.0 0.00 0.00 0.00 48 1014.1
20260905163009 95 70 0.0 2.0 0.00 0.00 0.00 47 1014.1
20260905161506 93 57 0.0 4.0 0.00 0.00 0.00 52 1014.2
20260905160014 93 264 0.0 4.0 0.00 0.00 0.00 52 1014.1
20260905154503 92 32 0.0 1.0 0.00 0.00 0.00 55 1014.1
20260905153111 91 274 0.0 4.0 0.00 0.00 0.00 57 1014.1
20260905151559 90 200 1.0 4.0 0.00 0.00 0.00 59 1014.1
20260905150056 90 247 0.0 4.0 0.00 0.00 0.00 61 1013.8
20260905144552 89 266 0.0 4.0 0.00 0.00 0.00 62 1013.7
20260905143050 87 271 0.0 3.0 0.00 0.00 0.00 65 1013.8
20260905141558 87 269 0.0 3.0 0.00 0.00 0.00 65 1013.9
20260905140047 87 278 0.0 1.0 0.00 0.00 0.00 64 1013.8
20260905134549 88 115 0.0 1.0 0.00 0.00 0.00 64 1013.8
20260905133144 86 80 0.0 1.0 0.00 0.00 0.00 67 1013.5
20260905131540 84 126 0.0 0.0 0.00 0.00 0.00 71 1013.4
20260905130039 82 186 0.0 0.0 0.00 0.00 0.00 73 1013.2
20260905124538 80 158 1.0 3.0 0.00 0.00 0.00 76 1013.1
20260905123036 78 277 0.0 0.0 0.00 0.00 0.00 80 1013.1
20260905121536 77 277 0.0 0.0 0.00 0.00 0.00 80 1013.2
20260905120034 78 277 0.0 0.0 0.00 0.00 0.00 79 1013.0
20260905114532 78 277 0.0 0.0 0.00 0.00 0.00 78 1013.0
20260905113032 78 277 0.0 0.0 0.00 0.00 0.00 79 1013.0
20260905111531 78 277 0.0 0.0 0.00 0.00 0.00 78 1013.0
20260905110029 78 277 0.0 0.0 0.00 0.00 0.00 77 1013.0
20260905104535 79 277 0.0 0.0 0.00 0.00 0.00 76 1012.7
20260905103025 79 277 0.0 0.0 0.00 0.00 0.00 75 1012.8
20260905101522 80 277 0.0 0.0 0.00 0.00 0.00 73 1012.8
20260905100022 80 277 0.0 0.0 0.00 0.00 0.00 72 1012.6
20260905094522 81 277 0.0 1.0 0.00 0.00 0.00 72 1012.7
20260905093021 80 240 0.0 0.0 0.00 0.00 0.00 72 1012.6
20260905091518 81 240 0.0 1.0 0.00 0.00 0.00 72 1012.6
20260905090017 81 226 0.0 0.0 0.00 0.00 0.00 72 1012.6
20260905084518 81 226 0.0 1.0 0.00 0.00 0.00 73 1012.4
20260905083016 81 124 0.0 0.0 0.00 0.00 0.00 73 1012.2
20260905081513 81 124 0.0 0.0 0.00 0.00 0.00 71 1012.2
20260905080011 82 124 0.0 1.0 0.00 0.00 0.00 70 1012.1
20260905074510 82 160 0.0 0.0 0.00 0.00 0.00 70 1012.3
20260905073006 83 127 0.0 0.0 0.00 0.00 0.00 69 1012.5
20260905071504 83 127 0.0 0.0 0.00 0.00 0.00 69 1012.7
20260905070002 83 127 0.0 1.0 0.00 0.00 0.00 68 1012.7
20260905064503 84 127 0.0 2.0 0.00 0.00 0.00 67 1012.8
20260905063103 84 103 0.0 0.0 0.00 0.00 0.00 67 1012.8
20260905061558 84 103 0.0 1.0 0.00 0.00 0.00 66 1012.8
20260905060056 84 206 0.0 0.0 0.00 0.00 0.00 65 1012.8